Flag for Cameroon Weather past 2 weeks in Bamenda, Cameroon

Now
75 °F

Passing clouds.


Feels Like: 73 °F
Forecast: 63 / 76 °F
Wind: No wind

Location: Douala Obs.

Current Time: Aug 1, 2015 at 3:08:03 AM

Latest Report: Aug 1, 2015 at 2:00 AM


Visibility: 5 mi

Pressure: 29.95 "Hg (25.97 "Hg at 1240m altitude)

Humidity: 100%

Dew point: 75 °F

Location of BamendaLocation

Historic Weather in Bamenda — Graph

°F

Bamenda temperature yesterday

Maximum temperature yesterday: 81 °F (at 11:00 AM)
Minimum temperature yesterday: 73 °F (at 2:00 AM)
Average temperature yesterday: 76 °F

Past Weeks' High & Low Weather Summary

 TemperatureHumidityPressure
High84 °F (Jul 17, 3:00 PM)100% (Jul 17, 6:00 AM)30.01 "Hg (Jul 17, 6:00 AM)
Low73 °F (Jul 21, 3:00 AM)70% (Jul 17, 2:00 PM)29.86 "Hg (Jul 17, 3:00 PM)
Average77 °F91%29.94 "Hg
* Reported Jul 17 1:00 AM — Aug 1 1:00 AM, Bamenda, Weather by CustomWeather, © 2015

Note: Actual official high and low records may vary slightly from our data, if they occured in-between our weather recording intervals... More about our weather records

Advertising

Bamenda weather history for previous 24 hours

 ConditionsComfort  
Time TempWeatherWind HumidityBarometerVisibility
1:00 AM
Sat, Aug 1
77 °FPassing clouds.No wind94%29.95 "HgN/A
12:00 AM77 °FPassing clouds.No wind94%29.95 "HgN/A
11:00 PM
Fri, Jul 31
77 °FPassing clouds.2 mph94%29.95 "HgN/A
10:00 PM77 °FPassing clouds.5 mph94%29.95 "HgN/A
9:00 PM77 °FPassing clouds.5 mph89%29.92 "HgN/A
8:00 PM77 °FPassing clouds.5 mph89%29.89 "HgN/A
7:00 PM77 °FPassing clouds.5 mph89%29.86 "HgN/A
6:00 PM77 °FPartly sunny.9 mph89%29.86 "HgN/A
5:00 PM79 °FPartly sunny.7 mph84%29.86 "HgN/A
4:00 PM79 °FPartly sunny.9 mph89%29.89 "HgN/A
3:00 PM77 °FLight rain. Broken clouds.5 mph94%29.89 "Hg4 mi
2:00 PM81 °FDrizzle. Partly sunny.2 mph79%29.92 "Hg3 mi
1:00 PM79 °FPartly sunny.7 mph89%29.95 "Hg5 mi
12:00 PM81 °FBroken clouds.5 mph79%30.01 "Hg5 mi
11:00 AM81 °FBroken clouds.7 mph79%30.01 "Hg5 mi
10:00 AM77 °FBroken clouds.9 mph89%30.01 "Hg5 mi
9:00 AM75 °FDrizzle. Broken clouds.5 mph94%30.01 "Hg4 mi
8:00 AM75 °FBroken clouds.12 mph94%29.98 "Hg4 mi
7:00 AM73 °FPartly sunny.2 mph100%29.95 "Hg5 mi
6:00 AM73 °FPassing clouds.2 mph100%29.95 "Hg5 mi
5:00 AM73 °FPartly cloudy.No wind100%29.95 "Hg4 mi
4:00 AM73 °FPartly cloudy.2 mph100%29.95 "Hg4 mi
3:00 AM73 °FPartly cloudy.No wind100%29.95 "HgN/A
Weather by CustomWeather, © 2015

See weather overviewHow to use our weather pages